Location: C�an Torras
(41.5052°N, 1.9280°E)
Time: 21:05:30
(UTC+00:00)

Cosmos 1354 Rocket - Pass Details

Date: 20 January 2021
Orbit: 764 x 783 km, 74.0° (Epoch: 02 March)

Event Time Altitude Azimuth Distance (km) Brightness Sun altitude
Rises 17:16:35 0° 204° (SSW) 3,247 8.0 -4.8°
Reaches altitude 10° 17:18:58 10° 207° (SSW) 2,326 7.3 -5.2°
Maximum altitude 17:24:14 70° 290° (WNW) 830 4.4 -6.1°
Drops below altitude 10° 17:29:34 10° 15° (NNE) 2,347 6.2 -7.0°
Sets 17:31:59 0° 18° (NNE) 3,280 6.9 -7.5°
